Tracking 20710 objects as of 30-May-2020
HD Live streaming from Space Station
objects crossing your sky now

FENGYUN 1C DEB

Track FENGYUN 1C DEB now!
10-day predictions


NORAD ID: 31954
Int'l Code: 1999-025CNF
Perigee: 839.3 km
Apogee: 975.6 km
Inclination: 98.1 °
Period: 103.0 minutes
Semi major axis: 7278 km
RCS: 0.0089 m2 (small)
Launch date: May 10, 1999
Source: People's Republic of China (PRC)
Launch site: Taiyaun Space Center, China (TSC)

Note: This is SATELLITE DEBRIS
aabbcc
Your satellite tracking list
Your tracking list is empty




NASA's NSSDC Master Catalog

Two Line Element Set (TLE):
1 31954U 99025CNF 20089.79801048  .00000397  00000-0  29443-3 0  9997
2 31954  98.1155 295.2027 0093628 311.3078  48.0056 13.98111610659780
Source of the keplerian elements: AFSPC